Powrót do katalogu

CZ-4B DEB

AktywnyPO
NORAD 29215·DEBRIS·🇨🇳 China

Wystrzelony May 15, 2002 z Taiyuan Satellite Launch Center

Loading…

Następne Przeloty (najbliższe 24 godziny)

TLE

ŚwieżeSource: Space-Track

Epoka: Sep 11, 2026, 07:09 UTC

1 29215U 02024F   26254.29832473  .00000179  00000-0  22232-3 0  9995
2 29215  98.7331 268.6637 0244172  27.4761  36.4278 13.64073995192028

Śledź CZ-4B DEB w czasie rzeczywistym z AllMySat

Download on the App Store